{"data":{"norad_id":68523,"intl_designator":"2026-068R","name":"STARLINK-37208","alt_names":[],"object_type":"PAYLOAD","status":"ACTIVE","operator":null,"country":"US","launch_date":"2026-03-30","launch_site_code":"AFETR","launch_vehicle":null,"mission":null,"orbit_class":"UNKNOWN","rcs_meters":null,"size_class":null,"mass_kg":null,"dimensions":null,"purposes":["comms"],"wikipedia_slug":null,"has_3d_model":false,"image_url":null,"decayed_at":null,"tle_current":{"epoch":"2026-09-19T14:27:53.452800Z","epoch_age_seconds":125195,"freshness":"FRESH","line1":"1 68523U 26068R   26262.60270200  .00011617  00000+0  35438-3 0  9992","line2":"2 68523  53.1584 303.6025 0001318  91.3317 268.7836 15.34403475 26709","mean_motion":15.34403475,"eccentricity":0.0001318,"inclination_deg":53.1584,"raan_deg":303.6025,"arg_perigee_deg":91.3317,"mean_anomaly_deg":268.7836,"bstar":0.00035438,"rev_number":2670,"period_min":93.847545542088,"perigee_km":461.7912904119,"apogee_km":463.59453317665,"semimajor_km":6840.8299117943,"source":"CELESTRAK","updated_at":"2026-09-20T09:00:43.905217Z"}}}